EW7124 Brigantine NJ US current weather conditions

sailwx.info

Wind from 359 at 3 knots

Air temperature 12.2° C
Dewpoint 4.2° C

Last reported at 2019-Dec-15 20:00 UTC.
Time now 2019-Dec-15 21:05 UTC

Location: N 39°25' W 074°23'.
View on Google Maps.

See reports from other nearby stations

  
Tides and Currents Weather Stations Pressure Air Temp Water Temp Dewpoint Dewpoint Depression Visibility Wind Speed Wind Dir Waves Ship Positions
date/time (UTC)wind fromknots sea level pressurealtimeterstation pressurevisibilityair tempwater tempwave heightnotes
2019-Dec-15 20:00 359 3 12.2
2019-Dec-15 19:45 359 1 12.8
2019-Dec-15 19:30 359 1 12.8
2019-Dec-15 19:15 304 0 12.2
2019-Dec-15 19:00 264 0 12.2
2019-Dec-15 18:47 359 0 12.8
2019-Dec-15 18:33 359 1 12.8
2019-Dec-15 18:18 359 2 13.3
2019-Dec-15 18:01 354 0 12.8
2019-Dec-15 17:46 354 1 13.3
2019-Dec-15 17:16 354 0 12.8
2019-Dec-15 17:03 196 12.8
2019-Dec-15 16:46 359 12.8
2019-Dec-15 16:31 344 12.2
2019-Dec-15 16:16 359 0 12.2
2019-Dec-15 16:01 359 11.7
2019-Dec-15 15:46 359 11.7
2019-Dec-15 15:32 359 11.7
2019-Dec-15 15:17 359 11.1
2019-Dec-15 15:02 357 11.1
2019-Dec-15 14:46 342 11.1
2019-Dec-15 14:31 357 9.4
2019-Dec-15 14:16 349 9.4
2019-Dec-15 14:01 359 8.9
2019-Dec-15 13:46 311 8.9
2019-Dec-15 13:31 359 8.9
2019-Dec-15 13:16 353 8.3
2019-Dec-15 13:01 359 8.3
2019-Dec-15 12:46 359 8.3
2019-Dec-15 12:31 359 8.3
2019-Dec-15 12:17 359 8.3
2019-Dec-15 12:00 359 7.8
2019-Dec-15 11:46 359 7.8
2019-Dec-15 11:31 359 7.8
2019-Dec-15 11:15 359 7.8
2019-Dec-15 11:01 359 7.8
2019-Dec-15 10:46 359 7.8
2019-Dec-15 10:30 359 7.8
2019-Dec-15 10:15 357 7.8
2019-Dec-15 10:01 359 7.8
2019-Dec-15 09:45 352 7.8
2019-Dec-15 09:30 352 7.8
2019-Dec-15 09:15 309 7.8
2019-Dec-15 09:00 357 8.9
2019-Dec-15 08:45 320 8.3
2019-Dec-15 08:30 359 7.8
2019-Dec-15 08:15 359 7.8
2019-Dec-15 08:00 353 7.8
2019-Dec-15 07:45 359 8.3
2019-Dec-15 07:31 359 8.3
2019-Dec-15 07:15 359 7.8
2019-Dec-15 07:00 359 7.8
2019-Dec-15 06:45 359 8.3
2019-Dec-15 06:30 359 8.3
2019-Dec-15 06:15 359 9.4
2019-Dec-15 06:02 359 8.9
2019-Dec-15 05:47 244 9.4
2019-Dec-15 05:32 320 0 9.4
2019-Dec-15 05:17 267 0 8.9
2019-Dec-15 05:03 354 0 10.0
2019-Dec-15 04:46 356 1 10.0
2019-Dec-15 04:32 356 0 9.4
2019-Dec-15 04:17 359 1 9.4
2019-Dec-15 04:01 359 0 10.0
2019-Dec-15 03:47 260 0 10.0
2019-Dec-15 03:31 359 0 10.0
2019-Dec-15 03:17 213 1 10.0
2019-Dec-15 03:01 359 1 10.0
2019-Dec-15 02:45 357 1 10.0
2019-Dec-15 02:31 229 2 10.6
2019-Dec-15 02:16 359 3 10.0
2019-Dec-15 02:01 359 0 10.6
2019-Dec-15 01:45 359 0 10.6
2019-Dec-15 01:31 359 0 11.1
2019-Dec-15 01:18 357 0 11.1
2019-Dec-15 01:00 357 1 11.1
2019-Dec-15 00:46 357 11.1
2019-Dec-15 00:31 359 11.7
2019-Dec-15 00:16 359 0 11.7
2019-Dec-15 00:00 337 11.7
2019-Dec-14 23:45 357 11.7
2019-Dec-14 23:31 347 11.7
2019-Dec-14 23:15 289 11.7
2019-Dec-14 23:00 359 12.2
2019-Dec-14 22:46 356 12.2
2019-Dec-14 22:30 357 12.8
2019-Dec-14 22:15 299 12.8
2019-Dec-14 22:01 322 12.8
2019-Dec-14 21:46 357 12.8
2019-Dec-14 21:31 343 12.8
2019-Dec-14 21:00 357 13.3
2019-Dec-14 20:45 306 13.9
2019-Dec-14 20:30 357 13.9
2019-Dec-14 20:15 357 14.4
2019-Dec-14 20:00 326 14.4
2019-Dec-14 19:45 357 14.4
2019-Dec-14 19:30 357 14.4
2019-Dec-14 19:15 357 13.9
2019-Dec-14 19:00 332 14.4
2019-Dec-14 18:45 357 14.4
2019-Dec-14 18:30 357 14.4
2019-Dec-14 18:15 357 14.4
2019-Dec-14 18:00 357 13.9
2019-Dec-14 17:45 322 14.4
2019-Dec-14 17:30 357 14.4
2019-Dec-14 17:15 357 14.4
2019-Dec-14 17:00 357 14.4
2019-Dec-14 16:45 353 15.0
2019-Dec-14 16:30 356 15.0
2019-Dec-14 16:15 353 15.0
2019-Dec-14 16:00 353 15.0
2019-Dec-14 15:45 352 15.6
2019-Dec-14 15:30 352 15.6
2019-Dec-14 15:17 357 15.0
2019-Dec-14 15:01 356 14.4
2019-Dec-14 14:47 356 13.9
2019-Dec-14 14:31 356 13.9
2019-Dec-14 14:18 356 13.9
2019-Dec-14 14:02 267 14.4
2019-Dec-14 13:48 357 13.9
2019-Dec-14 13:32 357 14.4
2019-Dec-14 13:16
2019-Dec-14 13:01
2019-Dec-14 12:47 357 13.9
2019-Dec-14 12:31 357 12.2
2019-Dec-14 12:17 357 11.1
2019-Dec-14 12:03 357 11.1
2019-Dec-14 11:46 356 11.1
2019-Dec-14 11:31 357 11.1
2019-Dec-14 10:46 356 11.1
2019-Dec-14 10:30 357 11.1
2019-Dec-14 10:15 357 11.1
2019-Dec-14 10:01 357 11.7
2019-Dec-14 09:46 357 11.7
2019-Dec-14 09:30 357 12.2
2019-Dec-14 09:01 339 11.7
2019-Dec-14 08:45 340 11.7
2019-Dec-14 08:31 336 11.7
2019-Dec-14 08:15 353 11.7
2019-Dec-14 08:00 356 12.2
2019-Dec-14 07:46 356 12.2
2019-Dec-14 07:30 356 11.7
2019-Dec-14 07:15 357 11.7
2019-Dec-14 07:00 356 11.7
2019-Dec-14 06:45 356 11.7
2019-Dec-14 06:30 357 11.7
2019-Dec-14 06:15 356 12.2
2019-Dec-14 06:00 357 12.2
2019-Dec-14 05:45 356 12.2
2019-Dec-14 05:30 357 12.8
2019-Dec-14 05:18 357 13.3
2019-Dec-14 05:02 357 13.3
2019-Dec-14 04:48 357 13.3
2019-Dec-14 04:32 357 12.8
2019-Dec-14 04:17 357 0 13.3
2019-Dec-14 04:04 352 0 13.3
2019-Dec-14 03:47 354 0 12.8
2019-Dec-14 03:31 357 0 12.8
2019-Dec-14 03:16 356 1 12.8
2019-Dec-14 03:01 356 12.2
2019-Dec-14 02:47 264 2 12.8
2019-Dec-14 02:33 356 0 12.8
2019-Dec-14 02:17 356 1 12.8
2019-Dec-14 02:01 356 1 12.8
2019-Dec-14 01:46 356 0 12.2
2019-Dec-14 01:33 356 0 12.2
2019-Dec-14 01:16 356 0 12.2
2019-Dec-14 01:01 356 0 11.7
2019-Dec-14 00:46 356 11.7
2019-Dec-14 00:31 356 11.7
2019-Dec-14 00:16 354 11.7
2019-Dec-14 00:01 357 11.1
2019-Dec-13 23:46 357 11.1
2019-Dec-13 23:32 357 11.1
2019-Dec-13 23:17 357 2 11.1
2019-Dec-13 23:01 356 11.7
2019-Dec-13 22:48 357 0 11.7
2019-Dec-13 22:33 312 11.7
2019-Dec-13 22:16 357 11.7
2019-Dec-13 22:01 350 11.7
2019-Dec-13 21:46 352 11.7
2019-Dec-13 21:32 357 12.2
2019-Dec-13 21:16 352 12.2
2019-Dec-13 21:02 350 11.7